Stations météo

Publicité
Threave, Grande-Bretagne (99090): Température de l'air & dewpoint: 11.11.2018 16:00:00 - 17.11.2018 16:00:00 (GMT)Threave, Grande-Bretagne (99090): Température de l'air -20cm & Température de l'air -100cm: 11.11.2018 16:00:00 - 17.11.2018 16:00:00 (GMT)Threave, Grande-Bretagne (99090): Quantités de précipitations: 11.11.2018 16:00:00 - 17.11.2018 16:00:00 (GMT)
Date & Time tt [°C] td [°C] tt -20cm [°C] tt -100cm [°C] rr [mm]
17.11.2018 16:00:00 8,1 5,1 - - 0,0
17.11.2018 15:00:00 9,7 5,7 - - 0,0
17.11.2018 14:00:00 10,1 5,9 - - 0,0
17.11.2018 13:00:00 9,3 5,8 - - 0,0
17.11.2018 12:00:00 9,2 5,7 - - 0,0
17.11.2018 11:00:00 7,7 4,8 - - 0,0
17.11.2018 10:00:00 6,1 4,6 - - 0,0
17.11.2018 09:00:00 4,8 3,8 9,9 10,2 0,0
17.11.2018 08:00:00 4,7 3,9 - - 0,0
17.11.2018 07:00:00 4,4 3,5 - - 0,0
17.11.2018 06:00:00 5,2 4,4 - - 0,0
17.11.2018 05:00:00 6,8 5,8 - - 0,0
17.11.2018 04:00:00 7,9 7,3 - - 0,0
17.11.2018 03:00:00 8,6 8,0 - - 0,0
17.11.2018 02:00:00 8,9 8,4 - - 0,0
17.11.2018 01:00:00 9,0 8,7 - - 0,0
17.11.2018 00:00:00 8,0 7,6 - - 0,0
16.11.2018 23:00:00 8,2 7,9 - - 0,0
16.11.2018 22:00:00 7,7 7,3 - - 0,0
16.11.2018 21:00:00 7,3 6,9 - - 0,0
16.11.2018 20:00:00 7,2 6,5 - - 0,0
16.11.2018 19:00:00 8,5 7,3 - - 0,0
16.11.2018 18:00:00 10,9 9,4 - - 0,0
16.11.2018 17:00:00 11,6 9,4 - - 0,0
16.11.2018 16:00:00 12,1 9,4 - - 0,0
16.11.2018 15:00:00 12,6 9,4 - - 0,0
16.11.2018 14:00:00 12,9 9,6 - - 0,0
16.11.2018 13:00:00 12,7 9,9 - - 0,0
16.11.2018 12:00:00 12,6 10,6 - - 0,0
16.11.2018 11:00:00 12,5 10,9 - - 0,0
16.11.2018 10:00:00 12,1 10,9 - - 0,0
16.11.2018 09:00:00 11,8 10,9 9,7 10,2 0,0
16.11.2018 08:00:00 11,4 10,6 - - 0,0
16.11.2018 07:00:00 11,6 10,8 - - 0,0
16.11.2018 06:00:00 11,4 10,7 - - 0,0
16.11.2018 05:00:00 11,5 11,0 - - 0,2
16.11.2018 04:00:00 10,4 9,9 - - 1,2
16.11.2018 03:00:00 10,5 10,0 - - 0,2
16.11.2018 02:00:00 10,3 9,8 - - 0,0
16.11.2018 01:00:00 10,1 9,7 - - 0,2
16.11.2018 00:00:00 10,1 9,5 - - 0,0
15.11.2018 23:00:00 10,1 9,5 - - 0,4
15.11.2018 22:00:00 10,0 9,1 - - 0,6
15.11.2018 21:00:00 10,9 9,1 - - 0,0
15.11.2018 20:00:00 12,0 10,1 - - 0,0
15.11.2018 19:00:00 11,7 9,8 - - 0,0
15.11.2018 18:00:00 11,4 9,5 - - 0,0
15.11.2018 17:00:00 11,2 9,3 - - 0,0
15.11.2018 16:00:00 11,5 9,0 - - 0,0
15.11.2018 15:00:00 11,7 8,7 - - 0,0
15.11.2018 14:00:00 11,1 8,5 - - 0,0
15.11.2018 13:00:00 10,6 7,7 - - 0,0
15.11.2018 12:00:00 11,1 7,3 - - 0,0
15.11.2018 11:00:00 10,8 6,2 - - 0,0
15.11.2018 10:00:00 10,5 6,5 - - 0,0
15.11.2018 09:00:00 9,6 6,8 9,7 10,2 0,0
15.11.2018 08:00:00 9,2 6,3 - - 0,0
15.11.2018 07:00:00 9,7 6,6 - - 0,0
15.11.2018 06:00:00 10,2 7,1 - - 0,0
15.11.2018 05:00:00 10,2 7,5 - - 0,0
15.11.2018 04:00:00 10,0 7,5 - - 0,0
15.11.2018 03:00:00 10,2 8,0 - - 0,0
15.11.2018 02:00:00 10,7 8,3 - - 0,0
15.11.2018 01:00:00 11,2 8,6 - - 0,0
15.11.2018 00:00:00 11,0 8,7 - - 0,0
14.11.2018 23:00:00 11,9 8,2 - - 0,0
14.11.2018 22:00:00 12,0 8,4 - - 0,0
14.11.2018 21:00:00 12,0 8,8 - - 0,0
14.11.2018 20:00:00 11,9 8,9 - - 0,0
14.11.2018 19:00:00 12,1 9,5 - - 0,0
14.11.2018 18:00:00 11,9 9,7 - - 0,0
14.11.2018 17:00:00 11,9 10,1 - - 0,0
14.11.2018 16:00:00 12,0 10,4 - - 0,0
14.11.2018 15:00:00 12,0 10,9 - - 0,0
14.11.2018 14:00:00 11,9 11,3 - - 0,0
14.11.2018 13:00:00 12,1 11,4 - - 0,0
14.11.2018 12:00:00 12,1 11,5 - - 0,4
14.11.2018 11:00:00 12,1 11,5 - - 2,2
14.11.2018 10:00:00 12,0 11,4 - - 0,8
14.11.2018 09:00:00 12,1 11,5 9,2 10,0 1,6
14.11.2018 08:00:00 12,1 11,5 - - 1,0
14.11.2018 07:00:00 12,0 11,4 - - 1,2
14.11.2018 06:00:00 11,7 11,2 - - 3,4
14.11.2018 05:00:00 11,2 10,6 - - 5,4
14.11.2018 04:00:00 10,8 10,2 - - 7,0
14.11.2018 03:00:00 10,7 9,9 - - 3,8
14.11.2018 02:00:00 10,7 10,1 - - 2,6
14.11.2018 01:00:00 10,8 9,9 - - 2,2
14.11.2018 00:00:00 10,9 10,0 - - 1,8
13.11.2018 23:00:00 11,2 9,5 - - 0,0
13.11.2018 22:00:00 11,1 8,4 - - 0,0
13.11.2018 21:00:00 11,3 9,3 - - 0,0
13.11.2018 20:00:00 10,8 9,1 - - 0,0
13.11.2018 19:00:00 10,7 8,5 - - 0,0
13.11.2018 18:00:00 10,3 8,2 - - 0,0
13.11.2018 17:00:00 9,8 6,9 - - 0,0
13.11.2018 16:00:00 9,7 6,6 - - 0,0
13.11.2018 15:00:00 10,5 7,2 - - 0,0
13.11.2018 14:00:00 10,0 7,3 - - 0,0
13.11.2018 13:00:00 10,4 6,8 - - 0,0
13.11.2018 12:00:00 10,6 6,5 - - 0,0
13.11.2018 11:00:00 10,2 6,8 - - 0,0
13.11.2018 10:00:00 9,4 6,9 - - 0,0
13.11.2018 09:00:00 8,6 6,4 9,0 9,9 0,0
13.11.2018 08:00:00 8,5 6,2 - - 0,0
13.11.2018 07:00:00 8,9 6,3 - - 0,0
13.11.2018 06:00:00 9,0 7,2 - - 0,0
13.11.2018 05:00:00 8,9 7,2 - - 0,0
13.11.2018 04:00:00 8,9 7,3 - - 0,2
13.11.2018 03:00:00 9,0 7,1 - - 0,0
13.11.2018 02:00:00 8,9 7,2 - - 0,0
13.11.2018 01:00:00 9,0 7,4 - - 0,0
13.11.2018 00:00:00 8,9 7,8 - - 0,2
12.11.2018 23:00:00 8,6 7,5 - - 0,0
12.11.2018 22:00:00 9,2 8,0 - - 1,2
12.11.2018 21:00:00 9,1 7,9 - - 1,0
12.11.2018 20:00:00 9,8 7,4 - - 0,0
12.11.2018 19:00:00 10,1 7,5 - - 0,0
12.11.2018 18:00:00 9,2 7,6 - - 0,2
12.11.2018 17:00:00 9,7 7,5 - - 0,0
12.11.2018 16:00:00 10,4 8,3 - - 0,0
12.11.2018 15:00:00 10,4 7,9 - - 0,2
12.11.2018 14:00:00 10,4 8,2 - - 0,0
12.11.2018 13:00:00 10,0 7,9 - - 0,2
12.11.2018 12:00:00 10,3 7,9 - - 0,0
12.11.2018 11:00:00 10,3 7,6 - - 0,2
12.11.2018 10:00:00 10,2 8,5 - - 0,2
12.11.2018 09:00:00 10,1 8,0 8,7 9,7 0,2
12.11.2018 08:00:00 9,3 7,4 - - 0,6
12.11.2018 07:00:00 9,5 7,6 - - 0,6
12.11.2018 06:00:00 10,4 8,6 - - 0,0
12.11.2018 05:00:00 10,0 7,8 - - 0,0
12.11.2018 04:00:00 9,8 8,3 - - 0,0
12.11.2018 03:00:00 10,5 8,8 - - 0,0
12.11.2018 02:00:00 9,9 7,8 - - 0,0
12.11.2018 01:00:00 10,2 8,3 - - 0,0
12.11.2018 00:00:00 10,2 8,6 - - 0,0
11.11.2018 23:00:00 10,3 8,1 - - 0,2
11.11.2018 22:00:00 9,4 7,4 - - 0,0
11.11.2018 21:00:00 9,1 7,4 - - 1,0
11.11.2018 20:00:00 8,9 7,1 - - 0,0
11.11.2018 19:00:00 7,7 6,2 - - 1,6
11.11.2018 18:00:00 7,5 6,1 - - 0,0
11.11.2018 17:00:00 6,8 4,9 - - 0,0
11.11.2018 16:00:00 8,1 5,3 - - 0,0

tt = Température de l'air
td = dewpoint
tt -20cm = Température de l'air -20cm
tt -100cm = Température de l'air -100cm
rr = Quantités de précipitations

stations d'obs. à proximité